Cloud_Cover
100 100 95 32 5 18 79 56 67 64 82 78 84 62 28 54 64 97 81 81 100 100 100 100 100 100 100 100 100 100 100 100 100 100 100 100 100 100 100 100 97 100 100
100 100 100 95 61 5 44 71 81 86 87 18 28 87 100 64 16 33 62 98 90 100 100 100 100 100 100 100 100 100 100 100 100 100 100 100 100 100 100 96 99 96 93
100 100 100 100 82 45 40 50 94 35 90 19 1 94 100 100 100 98 93 76 94 98 100 100 99 98 82 100 100 100 100 100 100 100 100 100 100 100 100 100 92 100 97
100 100 100 100 100 100 100 100 37 20 19 10 12 2 22 97 100 99 100 100 100 100 100 100 100 100 100 100 100 100 100 100 100 97 100 100 100 100 100 99 100 100 100
100 100 100 100 98 100 87 97 15 19 38 39 27 38 12 5 25 77 100 95 100 100 100 100 100 84 100 100 100 100 100 100 100 100 100 100 100 100 100 95 100 100 100
100 100 100 100 80 100 27 11 7 22 56 17 3 10 42 27 74 28 5 60 94 100 100 100 100 100 100 100 100 100 100 100 100 100 100 100 100 100 100 100 88 85 100
100 100 100 100 74 64 100 100 9 12 40 12 5 2 10 12 5 43 96 47 85 88 100 100 100 100 100 100 100 100 100 100 85 95 88 78 100 99 95 100 94 100 94
100 100 100 96 98 100 100 100 10 18 46 33 3 0 0 0 4 29 76 84 62 92 100 100 100 100 100 98 80 28 93 85 89 100 76 82 97 92 100 100 100 100 85
100 100 100 100 100 100 100 72 2 82 67 64 28 21 6 9 0 5 42 16 92 97 74 100 100 100 98 100 75 29 55 98 96 100 100 100 100 100 100 100 100 100 100
100 100 100 100 100 100 85 52 10 81 35 41 35 38 9 9 12 2 49 6 18 85 98 100 100 100 100 100 100 100 100 100 100 100 100 100 100 100 100 100 100 100 100
100 100 100 100 100 99 98 100 97 27 36 39 49 53 64 7 26 0 4 22 32 43 23 31 49 61 98 92 100 99 86 83 92 100 100 100 100 100 100 100 100 100 100
100 100 100 100 100 100 80 89 69 100 82 74 52 60 98 90 31 18 5 66 19 38 98 100 62 38 19 8 33 33 62 52 82 92 100 100 100 100 99 100 100 100 100
100 100 100 100 100 100 100 100 100 100 97 54 97 75 57 60 51 22 13 13 56 15 24 96 5 5 98 49 37 95 5 7 8 6 5 5 8 12 30 58 56 100 100
100 100 100 100 100 100 100 100 100 90 100 100 52 21 98 14 46 99 100 91 91 42 48 48 84 63 57 60 24 71 62 92 100 42 52 100 100 100 86 81 76 85 95
100 100 100 100 100 100 100 100 100 100 100 100 100 82 91 53 93 92 100 98 74 97 100 100 100 100 100 98 71 46 71 98 100 100 100 80 100 65 90 100 98 100 96
100 100 100 100 100 100 100 100 100 100 100 100 100 100 94 99 100 100 100 100 100 100 100 100 100 100 100 98 98 78 74 94 100 86 79 49 65 100 96 95 41 34 72
100 100 100 100 100 100 100 100 100 100 100 100 100 100 100 99 100 100 100 100 100 100 100 100 100 100 100 100 90 100 100 28 99 100 100 98 100 100 94 100 100 92 18
100 100 100 100 100 100 100 100 100 100 100 100 100 100 96 100 100 100 100 88 38 94 99 100 100 100 100 100 100 100 100 100 100 100 100 100 100 100 100 99 99 67 25
100 100 100 100 100 100 100 100 100 100 100 100 100 100 100 100 100 100 100 48 93 96 79 98 100 100 100 100 100 100 100 100 100 99 100 100 100 100 100 100 100 100 100
100 100 100 100 100 100 100 100 100 100 100 100 100 100 100 98 100 92 58 42 39 78 99 99 100 100 100 100 100 100 100 100 100 95 100 100 100 100 100 100 100 100 100
100 100 100 100 100 100 100 100 100 100 100 100 100 100 100 100 100 90 44 87 70 88 100 100 100 100 100 100 100 100 100 100 100 100 100 100 100 100 100 100 100 100 100
100 100 98 100 100 100 100 100 100 100 100 100 100 100 100 99 77 76 71 58 78 100 99 98 89 77 94 92 97 100 100 100 100 100 100 100 100 100 100 100 100 100 100
100 100 100 100 100 100 100 100 100 100 100 100 82 97 100 100 40 8 6 29 29 80 73 100 100 100 100 100 100 100 98 100 100 100 100 100 100 100 100 100 100 100 100
100 100 100 100 100 100 100 100 100 100 100 100 98 84 100 75 100 89 78 95 100 97 100 100 100 100 96 97 100 100 100 100 100 100 100 100 100 100 100 100 100 100 100
100 100 100 100 100 100 100 100 100 100 100 100 100 100 100 100 100 100 100 100 100 100 97 100 66 90 99 100 100 100 100 100 100 100 100 100 99 100 100 100 100 100 100
80 42 71 7 59 100 99 100 100 100 100 100 100 100 100 100 100 100 100 100 100 100 100 92 100 100 100 100 100 100 100 100 86 93 24 64 76 100 100 100 82 99 100